Year,Month,Day,Hour,Minute,Value (Times are PST for temperature in C)
2012,07,07,00,00,14.60
2012,07,07,00,01,14.60
2012,07,07,00,02,14.60
2012,07,07,00,03,14.60
2012,07,07,00,04,14.60
2012,07,07,00,05,14.60
2012,07,07,00,06,14.60
2012,07,07,00,07,14.60
2012,07,07,00,08,14.60
2012,07,07,00,09,14.50
2012,07,07,00,10,14.50
2012,07,07,00,11,14.50
2012,07,07,00,12,14.50
2012,07,07,00,13,14.40
2012,07,07,00,14,14.40
2012,07,07,00,15,14.40
2012,07,07,00,16,14.40
2012,07,07,00,17,14.40
2012,07,07,00,18,14.30
2012,07,07,00,19,14.30
2012,07,07,00,20,14.30
2012,07,07,00,21,14.30
2012,07,07,00,22,14.30
2012,07,07,00,23,14.30
2012,07,07,00,24,14.30
2012,07,07,00,25,14.30
2012,07,07,00,26,14.30
2012,07,07,00,27,14.30
2012,07,07,00,28,14.20
2012,07,07,00,29,14.20
2012,07,07,00,30,14.20
2012,07,07,00,31,14.20
2012,07,07,00,32,14.20
2012,07,07,00,33,14.20
2012,07,07,00,34,14.20
2012,07,07,00,35,14.20
2012,07,07,00,36,14.10
2012,07,07,00,37,14.10
2012,07,07,00,38,14.10
2012,07,07,00,39,14.10
2012,07,07,00,40,14.10
2012,07,07,00,41,14.00
2012,07,07,00,42,14.00
2012,07,07,00,43,14.00
2012,07,07,00,44,13.90
2012,07,07,00,45,13.90
2012,07,07,00,46,13.90
2012,07,07,00,47,13.90
2012,07,07,00,48,13.90
2012,07,07,00,49,13.90
2012,07,07,00,50,13.90
2012,07,07,00,51,13.90
2012,07,07,00,52,13.80
2012,07,07,00,53,13.80
2012,07,07,00,54,13.80
2012,07,07,00,55,13.80
2012,07,07,00,56,13.80
2012,07,07,00,57,13.80
2012,07,07,00,58,13.80
2012,07,07,00,59,13.80
2012,07,07,01,00,13.80
2012,07,07,01,01,13.70
2012,07,07,01,02,13.70
2012,07,07,01,03,13.70
2012,07,07,01,04,13.70
2012,07,07,01,05,13.70
2012,07,07,01,06,13.70
2012,07,07,01,07,13.60
2012,07,07,01,08,13.60
2012,07,07,01,09,13.60
2012,07,07,01,10,13.60
2012,07,07,01,11,13.60
2012,07,07,01,12,13.60
2012,07,07,01,13,13.60
2012,07,07,01,14,13.50
2012,07,07,01,15,13.50
2012,07,07,01,16,13.50
2012,07,07,01,17,13.50
2012,07,07,01,18,13.50
2012,07,07,01,19,13.40
2012,07,07,01,20,13.40
2012,07,07,01,21,13.40
2012,07,07,01,22,13.40
2012,07,07,01,23,13.40
2012,07,07,01,24,13.40
2012,07,07,01,25,13.40
2012,07,07,01,26,13.40
2012,07,07,01,27,13.40
2012,07,07,01,28,13.40
2012,07,07,01,29,13.30
2012,07,07,01,30,13.30
2012,07,07,01,31,13.30
2012,07,07,01,32,13.30
2012,07,07,01,33,13.30
2012,07,07,01,34,13.30
2012,07,07,01,35,13.30
2012,07,07,01,36,13.30
2012,07,07,01,37,13.20
2012,07,07,01,38,13.20
2012,07,07,01,39,13.20
2012,07,07,01,40,13.20
2012,07,07,01,41,13.20
2012,07,07,01,42,13.20
2012,07,07,01,43,13.20
2012,07,07,01,44,13.20
2012,07,07,01,45,13.20
2012,07,07,01,46,13.20
2012,07,07,01,47,13.10
2012,07,07,01,48,13.10
2012,07,07,01,49,13.10
2012,07,07,01,50,13.00
2012,07,07,01,51,13.00
2012,07,07,01,52,13.00
2012,07,07,01,53,12.90
2012,07,07,01,54,12.90
2012,07,07,01,55,12.90
2012,07,07,01,56,12.90
2012,07,07,01,57,12.90
2012,07,07,01,58,12.90
2012,07,07,01,59,12.80
2012,07,07,02,00,12.80
2012,07,07,02,01,12.80
2012,07,07,02,02,12.80
2012,07,07,02,03,12.80
2012,07,07,02,04,12.80
2012,07,07,02,05,12.80
2012,07,07,02,06,12.80
2012,07,07,02,07,12.80
2012,07,07,02,08,12.70
2012,07,07,02,09,12.70
2012,07,07,02,10,12.70
2012,07,07,02,11,12.70
2012,07,07,02,12,12.70
2012,07,07,02,13,12.70
2012,07,07,02,14,12.70
2012,07,07,02,15,12.60
2012,07,07,02,16,12.60
2012,07,07,02,17,12.60
2012,07,07,02,18,12.60
2012,07,07,02,19,12.50
2012,07,07,02,20,12.50
2012,07,07,02,21,12.50
2012,07,07,02,22,12.50
2012,07,07,02,23,12.40
2012,07,07,02,24,12.40
2012,07,07,02,25,12.40
2012,07,07,02,26,12.40
2012,07,07,02,27,12.40
2012,07,07,02,28,12.30
2012,07,07,02,29,12.30
2012,07,07,02,30,12.30
2012,07,07,02,31,12.30
2012,07,07,02,32,12.30
2012,07,07,02,33,12.30
2012,07,07,02,34,12.30
2012,07,07,02,35,12.30
2012,07,07,02,36,12.30
2012,07,07,02,37,12.20
2012,07,07,02,38,12.20
2012,07,07,02,39,12.20
2012,07,07,02,40,12.20
2012,07,07,02,41,12.20
2012,07,07,02,42,12.20
2012,07,07,02,43,12.20
2012,07,07,02,44,12.20
2012,07,07,02,45,12.20
2012,07,07,02,46,12.10
2012,07,07,02,47,12.10
2012,07,07,02,48,12.10
2012,07,07,02,49,12.10
2012,07,07,02,50,12.10
2012,07,07,02,51,12.10
2012,07,07,02,52,12.10
2012,07,07,02,53,12.00
2012,07,07,02,54,12.00
2012,07,07,02,55,12.00
2012,07,07,02,56,12.00
2012,07,07,02,57,11.90
2012,07,07,02,58,11.90
2012,07,07,02,59,11.90
2012,07,07,03,00,11.90
2012,07,07,03,01,11.90
2012,07,07,03,02,11.90
2012,07,07,03,03,11.80
2012,07,07,03,04,11.80
2012,07,07,03,05,11.80
2012,07,07,03,06,11.80
2012,07,07,03,07,11.80
2012,07,07,03,08,11.80
2012,07,07,03,09,11.80
2012,07,07,03,10,11.80
2012,07,07,03,11,11.80
2012,07,07,03,12,11.70
2012,07,07,03,13,11.70
2012,07,07,03,14,11.70
2012,07,07,03,15,11.70
2012,07,07,03,16,11.70
2012,07,07,03,17,11.70
2012,07,07,03,18,11.70
2012,07,07,03,19,11.70
2012,07,07,03,20,11.70
2012,07,07,03,21,11.70
2012,07,07,03,22,11.70
2012,07,07,03,23,11.70
2012,07,07,03,24,11.70
2012,07,07,03,25,11.70
2012,07,07,03,26,11.70
2012,07,07,03,27,11.60
2012,07,07,03,28,11.60
2012,07,07,03,29,11.60
2012,07,07,03,30,11.60
2012,07,07,03,31,11.60
2012,07,07,03,32,11.60
2012,07,07,03,33,11.60
2012,07,07,03,34,11.60
2012,07,07,03,35,11.60
2012,07,07,03,36,11.60
2012,07,07,03,37,11.50
2012,07,07,03,38,11.50
2012,07,07,03,39,11.50
2012,07,07,03,40,11.50
2012,07,07,03,41,11.50
2012,07,07,03,42,11.50
2012,07,07,03,43,11.50
2012,07,07,03,44,11.50
2012,07,07,03,45,11.40
2012,07,07,03,46,11.40
2012,07,07,03,47,11.40
2012,07,07,03,48,11.40
2012,07,07,03,49,11.40
2012,07,07,03,50,11.40
2012,07,07,03,51,11.40
2012,07,07,03,52,11.40
2012,07,07,03,53,11.40
2012,07,07,03,54,11.40
2012,07,07,03,55,11.40
2012,07,07,03,56,11.30
2012,07,07,03,57,11.30
2012,07,07,03,58,11.30
2012,07,07,03,59,11.30
2012,07,07,04,00,11.30
2012,07,07,04,01,11.30
2012,07,07,04,02,11.30
2012,07,07,04,03,11.30
2012,07,07,04,04,11.30
2012,07,07,04,05,11.30
2012,07,07,04,06,11.30
2012,07,07,04,07,11.30
2012,07,07,04,08,11.30
2012,07,07,04,09,11.20
2012,07,07,04,10,11.20
2012,07,07,04,11,11.20
2012,07,07,04,12,11.20
2012,07,07,04,13,11.20
2012,07,07,04,14,11.20
2012,07,07,04,15,11.20
2012,07,07,04,16,11.20
2012,07,07,04,17,11.20
2012,07,07,04,18,11.20
2012,07,07,04,19,11.20
2012,07,07,04,20,11.20
2012,07,07,04,21,11.20
2012,07,07,04,22,11.10
2012,07,07,04,23,11.10
2012,07,07,04,24,11.10
2012,07,07,04,25,11.10
2012,07,07,04,26,11.10
2012,07,07,04,27,11.10
2012,07,07,04,28,11.10
2012,07,07,04,29,11.10
2012,07,07,04,30,11.10
2012,07,07,04,31,11.10
2012,07,07,04,32,11.10
2012,07,07,04,33,11.10
2012,07,07,04,34,11.00
2012,07,07,04,35,11.00
2012,07,07,04,36,11.00
2012,07,07,04,37,11.00
2012,07,07,04,38,11.00
2012,07,07,04,39,11.00
2012,07,07,04,40,10.90
2012,07,07,04,41,10.90
2012,07,07,04,42,10.90
2012,07,07,04,43,10.90
2012,07,07,04,44,10.90
2012,07,07,04,45,10.90
2012,07,07,04,46,10.90
2012,07,07,04,47,10.90
2012,07,07,04,48,10.90
2012,07,07,04,49,10.90
2012,07,07,04,50,10.90
2012,07,07,04,51,10.90
2012,07,07,04,52,10.90
2012,07,07,04,53,10.80
2012,07,07,04,54,10.80
2012,07,07,04,55,10.80
2012,07,07,04,56,10.80
2012,07,07,04,57,10.80
2012,07,07,04,58,10.80
2012,07,07,04,59,10.80
2012,07,07,05,00,10.70
2012,07,07,05,01,10.80
2012,07,07,05,02,10.70
2012,07,07,05,03,10.70
2012,07,07,05,04,10.70
2012,07,07,05,05,10.70
2012,07,07,05,06,10.70
2012,07,07,05,07,10.70
2012,07,07,05,08,10.70
2012,07,07,05,09,10.70
2012,07,07,05,10,10.70
2012,07,07,05,11,10.70
2012,07,07,05,12,10.70
2012,07,07,05,13,10.70
2012,07,07,05,14,10.70
2012,07,07,05,15,10.70
2012,07,07,05,16,10.70
2012,07,07,05,17,10.70
2012,07,07,05,18,10.70
2012,07,07,05,19,10.70
2012,07,07,05,20,10.60
2012,07,07,05,21,10.70
2012,07,07,05,22,10.60
2012,07,07,05,23,10.60
2012,07,07,05,24,10.60
2012,07,07,05,25,10.60
2012,07,07,05,26,10.60
2012,07,07,05,27,10.60
2012,07,07,05,28,10.60
2012,07,07,05,29,10.60
2012,07,07,05,30,10.60
2012,07,07,05,31,10.60
2012,07,07,05,32,10.60
2012,07,07,05,33,10.60
2012,07,07,05,34,10.60
2012,07,07,05,35,10.60
2012,07,07,05,36,10.60
2012,07,07,05,37,10.60
2012,07,07,05,38,10.60
2012,07,07,05,39,10.60
2012,07,07,05,40,10.60
2012,07,07,05,41,10.60
2012,07,07,05,42,10.50
2012,07,07,05,43,10.50
2012,07,07,05,44,10.50
2012,07,07,05,45,10.50
2012,07,07,05,46,10.50
2012,07,07,05,47,10.50
2012,07,07,05,48,10.50
2012,07,07,05,49,10.50
2012,07,07,05,50,10.50
2012,07,07,05,51,10.50
2012,07,07,05,52,10.50
2012,07,07,05,53,10.50
2012,07,07,05,54,10.50
2012,07,07,05,55,10.50
2012,07,07,05,56,10.50
2012,07,07,05,57,10.50
2012,07,07,05,58,10.50
2012,07,07,05,59,10.50
2012,07,07,06,00,10.50
2012,07,07,06,01,10.50
2012,07,07,06,02,10.50
2012,07,07,06,03,10.60
2012,07,07,06,04,10.60
2012,07,07,06,05,10.60
2012,07,07,06,06,10.60
2012,07,07,06,07,10.60
2012,07,07,06,08,10.60
2012,07,07,06,09,10.60
2012,07,07,06,10,10.60
2012,07,07,06,11,10.60
2012,07,07,06,12,10.60
2012,07,07,06,13,10.60
2012,07,07,06,14,10.70
2012,07,07,06,15,10.70
2012,07,07,06,16,10.70
2012,07,07,06,17,10.70
2012,07,07,06,18,10.80
2012,07,07,06,19,10.80
2012,07,07,06,20,10.80
2012,07,07,06,21,10.80
2012,07,07,06,22,10.80
2012,07,07,06,23,10.90
2012,07,07,06,24,10.90
2012,07,07,06,25,10.90
2012,07,07,06,26,10.90
2012,07,07,06,27,10.90
2012,07,07,06,28,11.00
2012,07,07,06,29,11.00
2012,07,07,06,30,11.10
2012,07,07,06,31,11.10
2012,07,07,06,32,11.20
2012,07,07,06,33,11.20
2012,07,07,06,34,11.20
2012,07,07,06,35,11.30
2012,07,07,06,36,11.30
2012,07,07,06,37,11.30
2012,07,07,06,38,11.30
2012,07,07,06,39,11.40
2012,07,07,06,40,11.40
2012,07,07,06,41,11.50
2012,07,07,06,42,11.50
2012,07,07,06,43,11.60
2012,07,07,06,44,11.70
2012,07,07,06,45,11.70
2012,07,07,06,46,11.80
2012,07,07,06,47,11.80
2012,07,07,06,48,11.80
2012,07,07,06,49,11.90
2012,07,07,06,50,11.90
2012,07,07,06,51,11.90
2012,07,07,06,52,11.90
2012,07,07,06,53,12.00
2012,07,07,06,54,12.00
2012,07,07,06,55,12.00
2012,07,07,06,56,12.10
2012,07,07,06,57,12.10
2012,07,07,06,58,12.10
2012,07,07,06,59,12.10
2012,07,07,07,00,12.20
2012,07,07,07,01,12.30
2012,07,07,07,02,12.30
2012,07,07,07,03,12.40
2012,07,07,07,04,12.50
2012,07,07,07,05,12.60
2012,07,07,07,06,12.60
2012,07,07,07,07,12.70
2012,07,07,07,08,12.80
2012,07,07,07,09,12.80
2012,07,07,07,10,12.90
2012,07,07,07,11,13.00
2012,07,07,07,12,13.10
2012,07,07,07,13,13.20
2012,07,07,07,14,13.30
2012,07,07,07,15,13.40
2012,07,07,07,16,13.50
2012,07,07,07,17,13.60
2012,07,07,07,18,13.70
2012,07,07,07,19,13.70
2012,07,07,07,20,13.80
2012,07,07,07,21,13.80
2012,07,07,07,22,13.90
2012,07,07,07,23,13.90
2012,07,07,07,24,14.00
2012,07,07,07,25,14.00
2012,07,07,07,26,14.10
2012,07,07,07,27,14.10
2012,07,07,07,28,14.10
2012,07,07,07,29,14.10
2012,07,07,07,30,14.20
2012,07,07,07,31,14.20
2012,07,07,07,32,14.30
2012,07,07,07,33,14.40
2012,07,07,07,34,14.40
2012,07,07,07,35,14.50
2012,07,07,07,36,14.50
2012,07,07,07,37,14.60
2012,07,07,07,38,14.60
2012,07,07,07,39,14.60
2012,07,07,07,40,14.60
2012,07,07,07,41,14.70
2012,07,07,07,42,14.80
2012,07,07,07,43,14.80
2012,07,07,07,44,14.90
2012,07,07,07,45,15.00
2012,07,07,07,46,15.00
2012,07,07,07,47,15.10
2012,07,07,07,48,15.20
2012,07,07,07,49,15.20
2012,07,07,07,50,15.30
2012,07,07,07,51,15.30
2012,07,07,07,52,15.40
2012,07,07,07,53,15.50
2012,07,07,07,54,15.50
2012,07,07,07,55,15.60
2012,07,07,07,56,15.70
2012,07,07,07,57,15.80
2012,07,07,07,58,15.90
2012,07,07,07,59,15.90
2012,07,07,08,00,16.00
2012,07,07,08,01,16.10
2012,07,07,08,02,16.10
2012,07,07,08,03,16.10
2012,07,07,08,04,16.10
2012,07,07,08,05,16.10
2012,07,07,08,06,16.10
2012,07,07,08,07,16.10
2012,07,07,08,08,16.10
2012,07,07,08,09,16.20
2012,07,07,08,10,16.20
2012,07,07,08,11,16.20
2012,07,07,08,12,16.20
2012,07,07,08,13,16.20
2012,07,07,08,14,16.20
2012,07,07,08,15,16.30
2012,07,07,08,16,16.40
2012,07,07,08,17,16.50
2012,07,07,08,18,16.50
2012,07,07,08,19,16.60
2012,07,07,08,20,16.70
2012,07,07,08,21,16.80
2012,07,07,08,22,16.90
2012,07,07,08,23,16.90
2012,07,07,08,24,17.00
2012,07,07,08,25,17.10
2012,07,07,08,26,17.20
2012,07,07,08,27,17.20
2012,07,07,08,28,17.30
2012,07,07,08,29,17.30
2012,07,07,08,30,17.30
2012,07,07,08,31,17.30
2012,07,07,08,32,17.30
2012,07,07,08,33,17.30
2012,07,07,08,34,17.30
2012,07,07,08,35,17.30
2012,07,07,08,36,17.30
2012,07,07,08,37,17.30
2012,07,07,08,38,17.40
2012,07,07,08,39,17.50
2012,07,07,08,40,17.50
2012,07,07,08,41,17.60
2012,07,07,08,42,17.70
2012,07,07,08,43,17.60
2012,07,07,08,44,17.60
2012,07,07,08,45,17.60
2012,07,07,08,46,17.50
2012,07,07,08,47,17.50
2012,07,07,08,48,17.40
2012,07,07,08,49,17.30
2012,07,07,08,50,17.20
2012,07,07,08,51,17.20
2012,07,07,08,52,17.20
2012,07,07,08,53,17.20
2012,07,07,08,54,17.20
2012,07,07,08,55,17.20
2012,07,07,08,56,17.30
2012,07,07,08,57,17.30
2012,07,07,08,58,17.40
2012,07,07,08,59,17.50
2012,07,07,09,00,17.50
2012,07,07,09,01,17.50
2012,07,07,09,02,17.60
2012,07,07,09,03,17.60
2012,07,07,09,04,17.70
2012,07,07,09,05,17.70
2012,07,07,09,06,17.70
2012,07,07,09,07,17.80
2012,07,07,09,08,17.80
2012,07,07,09,09,17.90
2012,07,07,09,10,17.90
2012,07,07,09,11,17.90
2012,07,07,09,12,17.90
2012,07,07,09,13,17.90
2012,07,07,09,14,17.90
2012,07,07,09,15,17.90
2012,07,07,09,16,17.90
2012,07,07,09,17,17.90
2012,07,07,09,18,17.80
2012,07,07,09,19,17.80
2012,07,07,09,20,17.80
2012,07,07,09,21,17.70
2012,07,07,09,22,17.70
2012,07,07,09,23,17.70
2012,07,07,09,24,17.80
2012,07,07,09,25,17.80
2012,07,07,09,26,17.80
2012,07,07,09,27,17.80
2012,07,07,09,28,17.80
2012,07,07,09,29,17.70
2012,07,07,09,30,17.80
2012,07,07,09,31,17.80
2012,07,07,09,32,17.80
2012,07,07,09,33,17.90
2012,07,07,09,34,17.90
2012,07,07,09,35,17.90
2012,07,07,09,36,18.00
2012,07,07,09,37,18.10
2012,07,07,09,38,18.20
2012,07,07,09,39,18.20
2012,07,07,09,40,18.30
2012,07,07,09,41,18.30
2012,07,07,09,42,18.30
2012,07,07,09,43,18.30
2012,07,07,09,44,18.40
2012,07,07,09,45,18.30
2012,07,07,09,46,18.30
2012,07,07,09,47,18.30
2012,07,07,09,48,18.30
2012,07,07,09,49,18.30
2012,07,07,09,50,18.40
2012,07,07,09,51,18.50
2012,07,07,09,52,18.60
2012,07,07,09,53,18.70
2012,07,07,09,54,18.70
2012,07,07,09,55,18.80
2012,07,07,09,56,18.90
2012,07,07,09,57,18.90
2012,07,07,09,58,19.00
2012,07,07,09,59,19.00
2012,07,07,10,00,19.00
2012,07,07,10,01,18.90
2012,07,07,10,02,18.90
2012,07,07,10,03,18.90
2012,07,07,10,04,18.90
2012,07,07,10,05,18.90
2012,07,07,10,06,18.90
2012,07,07,10,07,18.90
2012,07,07,10,08,18.90
2012,07,07,10,09,18.90
2012,07,07,10,10,18.90
2012,07,07,10,11,18.90
2012,07,07,10,12,18.80
2012,07,07,10,13,18.80
2012,07,07,10,14,18.80
2012,07,07,10,15,18.80
2012,07,07,10,16,18.90
2012,07,07,10,17,18.90
2012,07,07,10,18,19.00
2012,07,07,10,19,18.90
2012,07,07,10,20,18.80
2012,07,07,10,21,18.70
2012,07,07,10,22,18.70
2012,07,07,10,23,18.60
2012,07,07,10,24,18.50
2012,07,07,10,25,18.40
2012,07,07,10,26,18.40
2012,07,07,10,27,18.40
2012,07,07,10,28,18.50
2012,07,07,10,29,18.50
2012,07,07,10,30,18.60
2012,07,07,10,31,18.60
2012,07,07,10,32,18.60
2012,07,07,10,33,18.60
2012,07,07,10,34,18.50
2012,07,07,10,35,18.50
2012,07,07,10,36,18.40
2012,07,07,10,37,18.50
2012,07,07,10,38,18.50
2012,07,07,10,39,18.60
2012,07,07,10,40,18.60
2012,07,07,10,41,18.70
2012,07,07,10,42,18.70
2012,07,07,10,43,18.80
2012,07,07,10,44,18.90
2012,07,07,10,45,19.00
2012,07,07,10,46,19.00
2012,07,07,10,47,19.00
2012,07,07,10,48,19.10
2012,07,07,10,49,19.00
2012,07,07,10,50,19.00
2012,07,07,10,51,19.00
2012,07,07,10,52,18.90
2012,07,07,10,53,18.90
2012,07,07,10,54,18.90
2012,07,07,10,55,19.00
2012,07,07,11,01,19.30
2012,07,07,11,02,19.20
2012,07,07,11,03,19.10
2012,07,07,11,04,19.10
2012,07,07,11,05,19.10
2012,07,07,21,07,18.90
2012,07,07,21,08,18.90
2012,07,07,21,09,18.80
2012,07,07,21,10,18.80
2012,07,07,21,11,18.80
2012,07,07,21,12,18.70
2012,07,07,21,13,18.70
2012,07,07,21,14,18.70
2012,07,07,21,15,18.70
2012,07,07,21,16,18.60
2012,07,07,21,17,18.60
2012,07,07,21,18,18.60
2012,07,07,21,19,18.60
2012,07,07,21,20,18.50
2012,07,07,21,21,18.40
2012,07,07,21,22,18.40
2012,07,07,21,23,18.30
2012,07,07,21,24,18.30
2012,07,07,21,25,18.30
2012,07,07,21,26,18.20
2012,07,07,21,27,18.20
2012,07,07,21,28,18.10
2012,07,07,21,29,18.10
2012,07,07,21,30,18.10
2012,07,07,21,31,18.00
2012,07,07,21,32,18.00
2012,07,07,21,33,18.00
2012,07,07,21,34,17.90
2012,07,07,21,35,17.90
2012,07,07,21,36,17.90
2012,07,07,21,37,17.90
2012,07,07,21,38,17.90
2012,07,07,21,39,17.80
2012,07,07,21,40,17.80
2012,07,07,21,41,17.80
2012,07,07,21,42,17.80
2012,07,07,21,43,17.80
2012,07,07,21,44,17.70
2012,07,07,21,45,17.70
2012,07,07,21,46,17.70
2012,07,07,21,47,17.70
2012,07,07,21,48,17.60
2012,07,07,21,49,17.60
2012,07,07,21,50,17.60
2012,07,07,21,51,17.60
2012,07,07,21,52,17.60
2012,07,07,21,53,17.50
2012,07,07,21,54,17.50
2012,07,07,21,55,17.50
2012,07,07,21,56,17.40
2012,07,07,21,57,17.40
2012,07,07,21,58,17.30
2012,07,07,21,59,17.30
2012,07,07,22,00,17.30
2012,07,07,22,01,17.30
2012,07,07,22,02,17.20
2012,07,07,22,03,17.20
2012,07,07,22,04,17.20
2012,07,07,22,05,17.20
2012,07,07,22,06,17.20
2012,07,07,22,07,17.10
2012,07,07,22,08,17.10
2012,07,07,22,09,17.10
2012,07,07,22,10,17.10
2012,07,07,22,11,17.00
2012,07,07,22,12,17.00
2012,07,07,22,13,16.90
2012,07,07,22,14,16.90
2012,07,07,22,15,16.90
2012,07,07,22,16,16.80
2012,07,07,22,17,16.80
2012,07,07,22,18,16.70
2012,07,07,22,19,16.70
2012,07,07,22,20,16.70
2012,07,07,22,21,16.60
2012,07,07,22,22,16.60
2012,07,07,22,23,16.60
2012,07,07,22,24,16.50
2012,07,07,22,25,16.50
2012,07,07,22,26,16.40
2012,07,07,22,27,16.40
2012,07,07,22,28,16.40
2012,07,07,22,29,16.30
2012,07,07,22,30,16.30
2012,07,07,22,31,16.30
2012,07,07,22,32,16.20
2012,07,07,22,33,16.20
2012,07,07,22,34,16.20
2012,07,07,22,35,16.20
2012,07,07,22,36,16.10
2012,07,07,22,37,16.10
2012,07,07,22,38,16.10
2012,07,07,22,39,16.00
2012,07,07,22,40,16.00
2012,07,07,22,41,15.90
2012,07,07,22,42,15.90
2012,07,07,22,43,15.90
2012,07,07,22,44,15.80
2012,07,07,22,45,15.80
2012,07,07,22,46,15.80
2012,07,07,22,47,15.80
2012,07,07,22,48,15.70
2012,07,07,22,49,15.70
2012,07,07,22,50,15.70
2012,07,07,22,51,15.70
2012,07,07,22,52,15.70
2012,07,07,22,53,15.60
2012,07,07,22,54,15.60
2012,07,07,22,55,15.60
2012,07,07,22,56,15.60
2012,07,07,22,57,15.60
2012,07,07,22,58,15.60
2012,07,07,22,59,15.60
2012,07,07,23,00,15.50
2012,07,07,23,01,15.50
2012,07,07,23,02,15.50
2012,07,07,23,03,15.40
2012,07,07,23,04,15.40
2012,07,07,23,05,15.40
2012,07,07,23,06,15.40
2012,07,07,23,07,15.30
2012,07,07,23,08,15.30
2012,07,07,23,09,15.30
2012,07,07,23,10,15.30
2012,07,07,23,11,15.30
2012,07,07,23,12,15.30
2012,07,07,23,13,15.30
2012,07,07,23,14,15.30
2012,07,07,23,15,15.30
2012,07,07,23,16,15.30
2012,07,07,23,17,15.30
2012,07,07,23,18,15.20
2012,07,07,23,19,15.20
2012,07,07,23,20,15.20
2012,07,07,23,21,15.20
2012,07,07,23,22,15.20
2012,07,07,23,23,15.20
2012,07,07,23,24,15.10
2012,07,07,23,25,15.10
2012,07,07,23,26,15.10
2012,07,07,23,27,15.10
2012,07,07,23,28,15.10
2012,07,07,23,29,15.10
2012,07,07,23,30,15.00
2012,07,07,23,31,15.00
2012,07,07,23,32,15.00
2012,07,07,23,33,14.90
2012,07,07,23,34,14.90
2012,07,07,23,35,14.90
2012,07,07,23,36,14.90
2012,07,07,23,37,14.90
2012,07,07,23,38,14.80
2012,07,07,23,39,14.80
2012,07,07,23,40,14.80
2012,07,07,23,41,14.80
2012,07,07,23,42,14.80
2012,07,07,23,43,14.80
2012,07,07,23,44,14.80
2012,07,07,23,45,14.70
2012,07,07,23,46,14.70
2012,07,07,23,47,14.70
2012,07,07,23,48,14.70
2012,07,07,23,49,14.70
2012,07,07,23,50,14.70
2012,07,07,23,51,14.60
2012,07,07,23,52,14.60
2012,07,07,23,53,14.60
2012,07,07,23,54,14.60
2012,07,07,23,55,14.60
2012,07,07,23,56,14.60
2012,07,07,23,57,14.50
2012,07,07,23,58,14.50
2012,07,07,23,59,14.50
